Flag Weather past 2 weeks in Płock, Poland

Now
43 °F

Fog.


Feels Like: 43 °F
Forecast: 36 / 50 °F
Wind: 2 mph from Northwest

Location: Plock

Current Time: Oct 30, 2014 at 7:45:39 PM

Latest Report: Oct 30, 2014 at 7:00 PM


Visibility: 1 mi

Pressure: 30.30 "Hg

Humidity: 92%

Dew point: 41 °F

Location of PłockLocation

Historic Weather in Płock — Graph

°F

Płock temperature yesterday

Maximum temperature yesterday: 53 °F (at 2:00 PM)
Minimum temperature yesterday: 30 °F (at 6:00 AM)
Average temperature yesterday: 39 °F

Past Weeks' High & Low Weather Summary

 TemperatureHumidityPressure
High66 °F (Oct 19, 3:00 PM)100% (Oct 27, 4:00 AM)30.45 "Hg (Oct 27, 4:00 AM)
Low27 °F (Oct 25, 7:00 AM)49% (Oct 24, 4:00 PM)29.54 "Hg (Oct 22, 5:00 AM)
Average45 °F85%30.09 "Hg
* Reported Oct 15 7:00 PM — Oct 30 6:00 PM, Płock, Weather by CustomWeather, © 2014

Note: Actual official high and low records may vary slightly from our data, if they occured in-between our weather recording intervals... More about our weather records

Advertising

Płock weather history for previous 24 hours

 ConditionsComfort  
Time TempWeatherWind HumidityBarometerVisibility
6:00 PM
Oct 30
43 °FFog.2 mph90%30.30 "Hg2 mi
5:00 PM43 °FFog.2 mph87%30.29 "Hg2 mi
4:00 PM44 °FFog.3 mph86%30.27 "Hg2 mi
3:00 PM44 °FFog.2 mph84%30.26 "Hg3 mi
2:00 PM45 °FFog.5 mph81%30.25 "Hg3 mi
1:00 PM45 °FFog.3 mph77%30.24 "Hg3 mi
12:00 PM44 °FFog.2 mph83%30.24 "Hg3 mi
11:00 AM43 °FFog.2 mph85%30.24 "Hg2 mi
10:00 AM40 °FFog.1 mph92%30.24 "Hg2 mi
9:00 AM37 °FFog.3 mph94%30.24 "Hg2 mi
8:00 AM32 °FFog.1 mph97%30.21 "Hg1 mi
7:00 AM30 °FFog.1 mph98%30.21 "Hg1 mi
6:00 AM28 °FChilly.No wind97%30.19 "Hg1 mi
5:00 AM29 °FDuststorm.1 mph98%30.18 "Hg1 mi
3:00 AM30 °FFog.No wind97%30.16 "Hg1 mi
2:00 AM31 °FFog.1 mph97%30.16 "Hg1 mi
1:00 AM33 °FFog.2 mph96%30.16 "Hg1 mi
12:00 AM33 °FFog.1 mph96%30.15 "Hg1 mi
11:00 PM
Oct 29
32 °FFog.1 mph93%30.15 "Hg1 mi
10:00 PM34 °FFog.1 mph88%30.14 "Hg2 mi
9:00 PM38 °FFog.2 mph83%30.14 "Hg3 mi
8:00 PM39 °FFog.1 mph81%30.14 "Hg3 mi
7:00 PM41 °FFog.2 mph76%30.12 "Hg4 mi
Weather by CustomWeather, © 2014

See weather overviewHow to use our weather pages